| time (UTC) | temp F | wind direction | speed MPH | gust MPH | rain 1hr in | rain 24hr in | rain mn in | humidity % | barometer mb |
| 20260503000108 | 88 | 4 | 0.0 | 9.0 | 0.00 | 0.00 | 0.00 | 21 | 1007.3 |
| 20260503000000 | 88 | 4 | 0.0 | 9.0 | 0.00 | 0.00 | 0.00 | 20 | 1007.3 |
| 20260502234603 | 88 | 4 | 1.0 | 10.0 | 0.00 | 0.00 | 0.00 | 20 | 1007.4 |
| 20260502233057 | 88 | 60 | 1.0 | 7.0 | 0.00 | 0.00 | 0.00 | 22 | 1007.5 |
| 20260502231556 | 88 | 38 | 2.0 | 3.0 | 0.00 | 0.00 | 0.00 | 24 | 1007.7 |
| 20260502230054 | 88 | 54 | 1.0 | 5.0 | 0.00 | 0.00 | 0.00 | 25 | 1007.9 |
| 20260502224555 | 88 | 4 | 0.0 | 4.0 | 0.00 | 0.00 | 0.00 | 26 | 1008.2 |
| 20260502223050 | 88 | 15 | 1.0 | 6.0 | 0.00 | 0.00 | 0.00 | 26 | 1008.3 |
| 20260502221550 | 88 | 359 | 1.0 | 12.0 | 0.00 | 0.00 | 0.00 | 26 | 1008.5 |
| 20260502220044 | 87 | 359 | 0.0 | 3.0 | 0.00 | 0.00 | 0.00 | 28 | 1008.7 |
| 20260502214551 | 86 | 27 | 1.0 | 9.0 | 0.00 | 0.00 | 0.00 | 27 | 1008.9 |
| 20260502213037 | 86 | 31 | 0.0 | 2.0 | 0.00 | 0.00 | 0.00 | 30 | 1009.0 |
| 20260502211536 | 85 | 4 | 1.0 | 4.0 | 0.00 | 0.00 | 0.00 | 30 | 1009.2 |
| 20260502210046 | 85 | 24 | 2.0 | 10.0 | 0.00 | 0.00 | 0.00 | 31 | 1009.4 |
| 20260502204531 | 84 | 8 | 1.0 | 6.0 | 0.00 | 0.00 | 0.00 | 32 | 1009.6 |
| 20260502203025 | 82 | 14 | 0.0 | 4.0 | 0.00 | 0.00 | 0.00 | 36 | 1009.8 |
| 20260502201524 | 82 | 16 | 0.0 | 4.0 | 0.00 | 0.00 | 0.00 | 34 | 1010.0 |
| 20260502200020 | 82 | 293 | 0.0 | 4.0 | 0.00 | 0.00 | 0.00 | 36 | 1010.2 |
| 20260502194517 | 81 | 4 | 1.0 | 4.0 | 0.00 | 0.00 | 0.00 | 37 | 1010.5 |
| 20260502193014 | 80 | 26 | 1.0 | 6.0 | 0.00 | 0.00 | 0.00 | 37 | 1010.7 |
| 20260502191510 | 79 | 229 | 1.0 | 3.0 | 0.00 | 0.00 | 0.00 | 39 | 1010.9 |
| 20260502190013 | 78 | 286 | 1.0 | 5.0 | 0.00 | 0.00 | 0.00 | 42 | 1011.0 |
| 20260502184502 | 77 | 15 | 1.0 | 5.0 | 0.00 | 0.00 | 0.00 | 41 | 1011.2 |
| 20260502183100 | 75 | 318 | 0.0 | 3.0 | 0.00 | 0.00 | 0.00 | 43 | 1011.3 |
| 20260502181557 | 74 | 26 | 1.0 | 6.0 | 0.00 | 0.00 | 0.00 | 43 | 1011.3 |
| 20260502163037 | 67 | 4 | 0.0 | 0.0 | 0.00 | 0.00 | 0.00 | 51 | 1011.5 |
| 20260502161530 | 67 | 4 | 0.0 | 0.0 | 0.00 | 0.00 | 0.00 | 52 | 1011.5 |
| 20260502151522 | 63 | 8 | 0.0 | 0.0 | 0.00 | 0.00 | 0.00 | 58 | 1011.4 |
| 20260502123049 | 56 | 4 | 0.0 | 0.0 | 0.00 | 0.00 | 0.00 | 71 | 1010.9 |
| 20260502121549 | 56 | 4 | 0.0 | 0.0 | 0.00 | 0.00 | 0.00 | 71 | 1010.6 |
| 20260502120104 | 56 | 4 | 0.0 | 0.0 | 0.00 | 0.00 | 0.00 | 70 | 1010.7 |
| 20260502114610 | 56 | 4 | 0.0 | 0.0 | 0.00 | 0.00 | 0.00 | 70 | 1010.7 |
| 20260502113045 | 56 | 4 | 0.0 | 0.0 | 0.00 | 0.00 | 0.00 | 70 | 1010.7 |
| 20260502111544 | 56 | 4 | 0.0 | 0.0 | 0.00 | 0.00 | 0.00 | 70 | 1010.7 |
| 20260502110042 | 56 | 4 | 0.0 | 0.0 | 0.00 | 0.00 | 0.00 | 70 | 1010.5 |
| 20260502104541 | 56 | 4 | 0.0 | 1.0 | 0.00 | 0.00 | 0.00 | 69 | 1010.5 |
| 20260502103039 | 57 | 4 | 1.0 | 5.0 | 0.00 | 0.00 | 0.00 | 68 | 1010.4 |
| 20260502101555 | 56 | 359 | 0.0 | 0.0 | 0.00 | 0.00 | 0.00 | 69 | 1010.4 |
| 20260502091531 | 58 | 359 | 0.0 | 0.0 | 0.00 | 0.00 | 0.00 | 65 | 1010.4 |
| 20260502071519 | 61 | 359 | 0.0 | 0.0 | 0.00 | 0.00 | 0.00 | 61 | 1010.3 |
| 20260502070016 | 61 | 359 | 0.0 | 0.0 | 0.00 | 0.00 | 0.00 | 60 | 1010.2 |
| 20260502064535 | 62 | 359 | 0.0 | 1.0 | 0.00 | 0.00 | 0.00 | 60 | 1010.3 |
| 20260502063020 | 62 | 359 | 0.0 | 0.0 | 0.00 | 0.00 | 0.00 | 59 | 1010.3 |
| 20260502061516 | 62 | 341 | 0.0 | 0.0 | 0.00 | 0.00 | 0.00 | 60 | 1010.3 |
| 20260502060028 | 63 | 359 | 0.0 | 0.0 | 0.00 | 0.00 | 0.00 | 58 | 1010.1 |
| 20260502054513 | 64 | 359 | 0.0 | 0.0 | 0.00 | 0.00 | 0.00 | 58 | 1010.2 |
| 20260502053013 | 64 | 359 | 0.0 | 0.0 | 0.00 | 0.00 | 0.00 | 56 | 1010.2 |
| 20260502051513 | 65 | 359 | 0.0 | 0.0 | 0.00 | 0.00 | 0.00 | 55 | 1010.2 |
| 20260502050019 | 65 | 359 | 0.0 | 1.0 | 0.00 | 0.00 | 0.00 | 55 | 1010.1 |
| 20260502044513 | 66 | 359 | 0.0 | 1.0 | 0.00 | 0.00 | 0.00 | 55 | 1010.0 |
| 20260502043012 | 66 | 341 | 1.0 | 3.0 | 0.00 | 0.00 | 0.00 | 54 | 1010.0 |
| 20260502041513 | 68 | 359 | 0.0 | 0.0 | 0.00 | 0.00 | 0.00 | 54 | 1009.9 |
| 20260502040015 | 69 | 359 | 0.0 | 1.0 | 0.00 | 0.00 | 0.00 | 52 | 1009.8 |
| 20260502034510 | 70 | 359 | 0.0 | 2.0 | 0.00 | 0.00 | 0.00 | 49 | 1009.8 |
| 20260502033019 | 72 | 359 | 0.0 | 1.0 | 0.00 | 0.00 | 0.00 | 45 | 1009.7 |
| 20260502031510 | 73 | 359 | 0.0 | 0.0 | 0.00 | 0.00 | 0.00 | 43 | 1009.6 |
| 20260502030009 | 74 | 341 | 0.0 | 0.0 | 0.00 | 0.00 | 0.00 | 43 | 1009.3 |
| 20260502024513 | 75 | 359 | 0.0 | 0.0 | 0.00 | 0.00 | 0.00 | 41 | 1009.3 |
| 20260502023008 | 76 | 359 | 0.0 | 3.0 | 0.00 | 0.00 | 0.00 | 40 | 1009.2 |
| 20260502021506 | 77 | 340 | 1.0 | 3.0 | 0.00 | 0.00 | 0.00 | 36 | 1009.2 |
| 20260502020005 | 78 | 359 | 0.0 | 3.0 | 0.00 | 0.00 | 0.00 | 33 | 1009.4 |
| 20260502014503 | 79 | 359 | 0.0 | 3.0 | 0.00 | 0.00 | 0.00 | 31 | 1009.5 |
| 20260502013002 | 80 | 359 | 0.0 | 3.0 | 0.00 | 0.00 | 0.00 | 31 | 1009.6 |
| 20260502011502 | 80 | 359 | 0.0 | 2.0 | 0.00 | 0.00 | 0.00 | 30 | 1009.7 |
| 20260502010110 | 81 | 328 | 0.0 | 4.0 | 0.00 | 0.00 | 0.00 | 28 | 1009.8 |
| 20260502004558 | 82 | 317 | 0.0 | 4.0 | 0.00 | 0.00 | 0.00 | 27 | 1009.9 |
| 20260502003157 | 82 | 359 | 0.0 | 6.0 | 0.00 | 0.00 | 0.00 | 26 | 1009.9 |
| 20260502001556 | 83 | 316 | 1.0 | 8.0 | 0.00 | 0.00 | 0.00 | 26 | 1010.0 |